Time,TemperatureF,DewpointF,PressureIn,WindDirection,WindDirectionDegrees,WindSpeedMPH,WindSpeedGustMPH,Humidity,HourlyPrecipIn,Conditions,Clouds,dailyrainin,SoftwareType,DateUTC
2013-04-26 00:04:00,55.2,36.4,28.53,ENE,63,3.6,3.6,49,0.00,,---,0.00,VWS V14.00,2013-04-26 05:04:00,
2013-04-26 00:09:00,55.4,36.1,28.53,ENE,63,0.0,0.0,48,0.00,,---,0.00,VWS V14.00,2013-04-26 05:09:00,
2013-04-26 00:14:00,55.6,35.7,28.53,ENE,63,0.0,0.0,47,0.00,,---,0.00,VWS V14.00,2013-04-26 05:14:00,
2013-04-26 00:19:00,55.6,35.7,28.53,ENE,63,0.0,0.0,47,0.00,,---,0.00,VWS V14.00,2013-04-26 05:19:00,
2013-04-26 00:24:00,55.6,35.7,28.53,ENE,63,0.0,0.0,47,0.00,,---,0.00,VWS V14.00,2013-04-26 05:24:00,
2013-04-26 00:30:00,55.4,35.5,28.53,SSE,151,2.2,2.7,47,0.00,,---,0.00,VWS V14.00,2013-04-26 05:30:00,
2013-04-26 00:35:00,55.4,35.5,28.56,SSE,151,2.2,2.7,47,0.00,,---,0.00,VWS V14.00,2013-04-26 05:35:00,
2013-04-26 00:40:00,55.2,35.9,28.56,SSE,151,2.7,2.7,48,0.00,,---,0.00,VWS V14.00,2013-04-26 05:40:00,
2013-04-26 00:45:00,55.2,35.9,28.56,SSE,148,2.7,3.1,48,0.00,,---,0.00,VWS V14.00,2013-04-26 05:45:00,
2013-04-26 00:50:00,54.9,36.1,28.56,SSE,151,5.4,5.4,49,0.00,,---,0.00,VWS V14.00,2013-04-26 05:50:00,
2013-04-26 00:55:00,54.5,36.3,28.56,SSE,148,3.6,4.9,50,0.00,,---,0.00,VWS V14.00,2013-04-26 05:55:00,
2013-04-26 01:00:00,54.1,36.9,28.56,SSE,153,5.8,5.8,52,0.00,,---,0.00,VWS V14.00,2013-04-26 06:00:00,
2013-04-26 01:05:00,53.8,37.5,28.56,SE,142,5.4,6.3,54,0.00,,---,0.00,VWS V14.00,2013-04-26 06:05:00,
2013-04-26 01:10:00,53.6,38.3,28.56,SSE,163,3.6,8.3,56,0.00,,---,0.00,VWS V14.00,2013-04-26 06:10:00,
2013-04-26 01:15:00,53.4,38.6,28.56,SE,136,5.8,7.6,57,0.00,,---,0.00,VWS V14.00,2013-04-26 06:15:00,
2013-04-26 01:21:00,53.4,39.0,28.53,SE,127,5.8,5.8,58,0.00,,---,0.00,VWS V14.00,2013-04-26 06:21:00,
2013-04-26 01:26:00,53.4,39.0,28.53,SE,141,4.9,5.8,58,0.00,,---,0.00,VWS V14.00,2013-04-26 06:26:00,
2013-04-26 01:31:00,53.6,38.8,28.53,SSE,152,4.0,6.3,57,0.00,,---,0.00,VWS V14.00,2013-04-26 06:31:00,
2013-04-26 01:36:00,53.6,38.8,28.53,SSE,150,4.0,6.3,57,0.00,,---,0.00,VWS V14.00,2013-04-26 06:36:00,
2013-04-26 01:41:00,53.6,38.8,28.53,SSE,162,3.1,4.0,57,0.00,,---,0.00,VWS V14.00,2013-04-26 06:41:00,
2013-04-26 01:46:00,53.4,39.0,28.53,SSE,147,5.4,5.8,58,0.00,,---,0.00,VWS V14.00,2013-04-26 06:46:00,
2013-04-26 01:51:00,53.4,39.5,28.53,SE,139,6.3,6.3,59,0.00,,---,0.00,VWS V14.00,2013-04-26 06:51:00,
2013-04-26 01:56:00,53.2,39.7,28.53,SSE,150,8.7,8.7,60,0.00,,---,0.00,VWS V14.00,2013-04-26 06:56:00,
2013-04-26 02:01:00,53.1,40.0,28.53,SE,133,5.4,5.8,61,0.00,,---,0.00,VWS V14.00,2013-04-26 07:01:00,
2013-04-26 02:06:00,52.7,39.6,28.53,South,172,8.7,8.7,61,0.00,,---,0.00,VWS V14.00,2013-04-26 07:06:00,
2013-04-26 02:11:00,52.7,39.6,28.53,SE,145,3.1,4.0,61,0.00,,---,0.00,VWS V14.00,2013-04-26 07:11:00,
2013-04-26 02:17:00,52.5,39.5,28.53,SSE,150,3.6,6.3,61,0.00,,---,0.00,VWS V14.00,2013-04-26 07:17:00,
2013-04-26 02:22:00,52.5,39.5,28.53,SSE,148,3.6,5.4,61,0.00,,---,0.00,VWS V14.00,2013-04-26 07:22:00,
2013-04-26 02:27:00,52.3,39.7,28.53,SSE,163,5.4,6.3,62,0.00,,---,0.00,VWS V14.00,2013-04-26 07:27:00,
2013-04-26 02:32:00,52.3,39.7,28.53,SSE,155,4.0,5.8,62,0.00,,---,0.00,VWS V14.00,2013-04-26 07:32:00,
2013-04-26 02:37:00,52.3,39.7,28.53,SSE,162,4.0,4.0,62,0.00,,---,0.00,VWS V14.00,2013-04-26 07:37:00,
2013-04-26 02:42:00,52.2,39.5,28.53,SSE,161,0.0,0.0,62,0.00,,---,0.00,VWS V14.00,2013-04-26 07:42:00,
2013-04-26 02:47:00,52.0,40.2,28.53,SSE,161,0.0,0.0,64,0.00,,---,0.00,VWS V14.00,2013-04-26 07:47:00,
2013-04-26 02:52:00,51.6,40.2,28.56,SSE,163,0.0,0.0,65,0.00,,---,0.00,VWS V14.00,2013-04-26 07:52:00,
2013-04-26 02:57:00,51.3,40.3,28.56,SSE,162,0.0,0.0,66,0.00,,---,0.00,VWS V14.00,2013-04-26 07:57:00,
2013-04-26 03:02:00,51.1,40.1,28.56,SSE,162,0.0,0.0,66,0.00,,---,0.00,VWS V14.00,2013-04-26 08:02:00,
2013-04-26 03:07:00,51.1,40.5,28.56,NE,49,0.0,0.0,67,0.00,,---,0.00,VWS V14.00,2013-04-26 08:07:00,
2013-04-26 03:13:00,50.9,40.7,28.56,NE,49,0.0,0.0,68,0.00,,---,0.00,VWS V14.00,2013-04-26 08:13:00,
2013-04-26 03:18:00,50.9,40.7,28.56,NE,50,0.0,0.0,68,0.00,,---,0.00,VWS V14.00,2013-04-26 08:18:00,
2013-04-26 03:23:00,50.9,41.1,28.53,NE,49,0.0,0.0,69,0.00,,---,0.00,VWS V14.00,2013-04-26 08:23:00,
2013-04-26 03:28:00,51.1,41.3,28.53,NE,49,0.0,0.0,69,0.00,,---,0.00,VWS V14.00,2013-04-26 08:28:00,
2013-04-26 03:33:00,51.1,41.7,28.53,NE,50,0.0,0.0,70,0.00,,---,0.00,VWS V14.00,2013-04-26 08:33:00,
2013-04-26 03:38:00,50.9,41.5,28.53,NNE,19,0.0,0.0,70,0.00,,---,0.00,VWS V14.00,2013-04-26 08:38:00,
2013-04-26 03:43:00,50.9,41.5,28.53,NNE,19,0.0,0.0,70,0.00,,---,0.00,VWS V14.00,2013-04-26 08:43:00,
2013-04-26 03:48:00,50.9,41.5,28.53,NNE,19,0.0,0.0,70,0.00,,---,0.00,VWS V14.00,2013-04-26 08:48:00,
2013-04-26 03:53:00,50.5,41.1,28.53,ESE,106,3.6,3.6,70,0.00,,---,0.00,VWS V14.00,2013-04-26 08:53:00,
2013-04-26 03:58:00,50.4,41.0,28.53,SE,125,2.7,3.1,70,0.00,,---,0.00,VWS V14.00,2013-04-26 08:58:00,
2013-04-26 04:04:00,50.4,41.0,28.53,SE,125,2.7,3.6,70,0.00,,---,0.00,VWS V14.00,2013-04-26 09:04:00,
2013-04-26 04:09:00,50.2,40.4,28.50,ESE,123,3.6,4.0,69,0.00,,---,0.00,VWS V14.00,2013-04-26 09:09:00,
2013-04-26 04:14:00,50.2,40.4,28.50,East,89,4.0,4.0,69,0.00,,---,0.00,VWS V14.00,2013-04-26 09:14:00,
2013-04-26 04:19:00,50.2,40.4,28.50,ENE,77,2.7,3.1,69,0.00,,---,0.00,VWS V14.00,2013-04-26 09:19:00,
2013-04-26 04:24:00,50.0,39.9,28.50,NE,56,2.7,3.6,68,0.00,,---,0.00,VWS V14.00,2013-04-26 09:24:00,
2013-04-26 04:29:00,49.8,40.1,28.50,ENE,69,0.0,2.7,69,0.00,,---,0.00,VWS V14.00,2013-04-26 09:29:00,
2013-04-26 04:34:00,49.8,39.7,28.50,ENE,69,0.0,0.0,68,0.00,,---,0.00,VWS V14.00,2013-04-26 09:34:00,
2013-04-26 04:39:00,49.6,39.5,28.50,ENE,69,0.0,0.0,68,0.00,,---,0.00,VWS V14.00,2013-04-26 09:39:00,
2013-04-26 04:44:00,49.3,39.2,28.50,ENE,69,0.0,0.0,68,0.00,,---,0.00,VWS V14.00,2013-04-26 09:44:00,
2013-04-26 04:50:00,49.1,39.0,28.50,ENE,70,0.0,3.1,68,0.00,,---,0.00,VWS V14.00,2013-04-26 09:50:00,
2013-04-26 04:55:00,48.9,38.8,28.50,ENE,70,0.0,0.0,68,0.00,,---,0.00,VWS V14.00,2013-04-26 09:55:00,
2013-04-26 05:00:00,48.6,38.5,28.50,ENE,70,0.0,0.0,68,0.00,,---,0.00,VWS V14.00,2013-04-26 10:00:00,
2013-04-26 05:05:00,48.4,38.7,28.50,ENE,70,0.0,0.0,69,0.00,,---,0.00,VWS V14.00,2013-04-26 10:05:00,
2013-04-26 05:10:00,48.2,38.5,28.50,ENE,70,2.7,2.7,69,0.00,,---,0.00,VWS V14.00,2013-04-26 10:10:00,
2013-04-26 05:15:00,48.2,38.5,28.50,ENE,70,2.7,2.7,69,0.00,,---,0.00,VWS V14.00,2013-04-26 10:15:00,
2013-04-26 05:20:00,48.0,38.7,28.50,SE,126,4.0,4.0,70,0.00,,---,0.00,VWS V14.00,2013-04-26 10:20:00,
2013-04-26 05:25:00,48.0,38.7,28.50,SE,142,2.7,3.1,70,0.00,,---,0.00,VWS V14.00,2013-04-26 10:25:00,
2013-04-26 05:30:00,48.0,38.7,28.50,SSE,157,0.0,0.0,70,0.00,,---,0.00,VWS V14.00,2013-04-26 10:30:00,
2013-04-26 05:35:00,47.8,38.9,28.50,SSE,156,3.6,3.6,71,0.00,,---,0.00,VWS V14.00,2013-04-26 10:35:00,
2013-04-26 05:41:00,47.7,38.7,28.50,SE,141,3.1,3.1,71,0.00,,---,0.00,VWS V14.00,2013-04-26 10:41:00,
2013-04-26 05:46:00,47.7,38.7,28.50,SSE,147,3.1,3.6,71,0.00,,---,0.00,VWS V14.00,2013-04-26 10:46:00,
2013-04-26 05:51:00,47.5,38.6,28.50,SE,145,3.1,3.6,71,0.00,,---,0.00,VWS V14.00,2013-04-26 10:51:00,
2013-04-26 05:56:00,47.5,38.9,28.50,SE,143,2.7,3.1,72,0.00,,---,0.00,VWS V14.00,2013-04-26 10:56:00,
2013-04-26 06:01:00,47.5,38.9,28.50,SSE,150,0.0,0.0,72,0.00,,---,0.00,VWS V14.00,2013-04-26 11:01:00,
2013-04-26 06:06:00,47.5,38.9,28.50,SSE,147,2.2,2.2,72,0.00,,---,0.00,VWS V14.00,2013-04-26 11:06:00,
2013-04-26 06:11:00,47.7,39.4,28.50,SE,144,2.7,2.7,73,0.00,,---,0.00,VWS V14.00,2013-04-26 11:11:00,
2013-04-26 06:16:00,47.8,39.6,28.50,SE,140,3.1,3.6,73,0.00,,---,0.00,VWS V14.00,2013-04-26 11:16:00,
2013-04-26 06:21:00,48.0,40.1,28.50,SSE,149,4.9,4.9,74,0.00,,---,0.00,VWS V14.00,2013-04-26 11:21:00,
2013-04-26 06:26:00,48.4,40.5,28.50,ESE,120,2.7,6.3,74,0.00,,---,0.00,VWS V14.00,2013-04-26 11:26:00,
2013-04-26 06:31:00,48.6,41.0,28.50,SE,140,4.0,6.3,75,0.00,,---,0.00,VWS V14.00,2013-04-26 11:31:00,
2013-04-26 06:36:00,48.7,41.2,28.50,SE,142,4.0,4.0,75,0.00,,---,0.00,VWS V14.00,2013-04-26 11:36:00,
2013-04-26 06:42:00,49.1,41.5,28.50,SSE,165,3.6,4.9,75,0.00,,---,0.00,VWS V14.00,2013-04-26 11:42:00,
2013-04-26 06:47:00,49.3,41.7,28.50,SE,141,4.0,5.8,75,0.00,,---,0.00,VWS V14.00,2013-04-26 11:47:00,
2013-04-26 06:52:00,49.5,41.9,28.50,SSE,155,2.7,4.0,75,0.00,,---,0.00,VWS V14.00,2013-04-26 11:52:00,
2013-04-26 06:57:00,49.5,41.9,28.50,SE,135,4.0,4.0,75,0.00,,---,0.00,VWS V14.00,2013-04-26 11:57:00,
2013-04-26 07:02:00,49.3,41.7,28.50,ESE,117,5.4,5.4,75,0.00,,---,0.00,VWS V14.00,2013-04-26 12:02:00,
2013-04-26 07:07:00,49.3,41.7,28.50,SE,133,3.1,3.1,75,0.00,,---,0.00,VWS V14.00,2013-04-26 12:07:00,
2013-04-26 07:12:00,49.5,41.9,28.50,SE,129,4.0,4.0,75,0.00,,---,0.00,VWS V14.00,2013-04-26 12:12:00,
2013-04-26 07:17:00,49.6,42.0,28.50,SE,136,4.9,5.4,75,0.00,,---,0.00,VWS V14.00,2013-04-26 12:17:00,
2013-04-26 07:22:00,50.2,42.6,28.50,SSE,158,4.9,8.1,75,0.00,,---,0.00,VWS V14.00,2013-04-26 12:22:00,
2013-04-26 07:27:00,50.7,43.4,28.50,SE,136,5.4,7.6,76,0.00,,---,0.00,VWS V14.00,2013-04-26 12:27:00,
2013-04-26 07:33:00,51.3,44.0,28.50,SE,137,4.0,6.3,76,0.00,,---,0.00,VWS V14.00,2013-04-26 12:33:00,
2013-04-26 07:38:00,51.6,44.3,28.50,SE,146,5.8,6.3,76,0.00,,---,0.00,VWS V14.00,2013-04-26 12:38:00,
2013-04-26 07:43:00,51.8,44.1,28.50,ESE,123,5.8,5.8,75,0.00,,---,0.00,VWS V14.00,2013-04-26 12:43:00,
2013-04-26 07:48:00,52.0,44.3,28.50,SE,142,5.4,5.4,75,0.00,,---,0.00,VWS V14.00,2013-04-26 12:48:00,
2013-04-26 07:53:00,52.2,44.1,28.53,SE,138,6.3,6.3,74,0.00,,---,0.00,VWS V14.00,2013-04-26 12:53:00,
2013-04-26 07:58:00,52.0,44.0,28.53,SSE,154,4.0,5.8,74,0.00,,---,0.00,VWS V14.00,2013-04-26 12:58:00,
2013-04-26 08:03:00,52.0,44.0,28.53,ESE,108,5.4,5.8,74,0.00,,---,0.00,VWS V14.00,2013-04-26 13:03:00,
2013-04-26 08:08:00,52.0,43.6,28.53,SE,126,5.8,5.8,73,0.00,,---,0.00,VWS V14.00,2013-04-26 13:08:00,
2013-04-26 08:13:00,52.0,43.6,28.53,SSW,196,5.8,6.3,73,0.00,,---,0.00,VWS V14.00,2013-04-26 13:13:00,
2013-04-26 08:18:00,52.0,43.6,28.53,SE,131,3.1,4.0,73,0.00,,---,0.00,VWS V14.00,2013-04-26 13:18:00,
2013-04-26 08:24:00,51.8,43.4,28.53,SE,144,5.8,5.8,73,0.00,,---,0.00,VWS V14.00,2013-04-26 13:24:00,
2013-04-26 08:29:00,51.8,43.4,28.53,SE,138,5.4,6.3,73,0.00,,---,0.00,VWS V14.00,2013-04-26 13:29:00,
2013-04-26 08:34:00,52.0,44.0,28.53,SE,124,4.5,6.3,74,0.00,,---,0.00,VWS V14.00,2013-04-26 13:34:00,
2013-04-26 08:39:00,52.2,44.1,28.53,SSE,159,4.9,4.9,74,0.00,,---,0.00,VWS V14.00,2013-04-26 13:39:00,
2013-04-26 08:44:00,52.3,44.3,28.53,ESE,121,4.9,8.3,74,0.00,,---,0.00,VWS V14.00,2013-04-26 13:44:00,
2013-04-26 08:49:00,52.5,44.5,28.53,SE,140,6.3,6.3,74,0.00,,---,0.00,VWS V14.00,2013-04-26 13:49:00,
2013-04-26 08:54:00,52.7,44.7,28.50,ESE,110,5.4,5.4,74,0.00,,---,0.00,VWS V14.00,2013-04-26 13:54:00,
2013-04-26 08:59:00,53.1,44.7,28.50,SE,137,5.4,6.3,73,0.00,,---,0.00,VWS V14.00,2013-04-26 13:59:00,
2013-04-26 09:04:00,53.1,44.7,28.50,South,171,5.8,5.8,73,0.00,,---,0.00,VWS V14.00,2013-04-26 14:04:00,
2013-04-26 09:09:00,53.2,44.8,28.50,SE,135,5.4,5.4,73,0.00,,---,0.00,VWS V14.00,2013-04-26 14:09:00,
2013-04-26 09:15:00,53.6,44.8,28.50,East,88,5.4,5.8,72,0.00,,---,0.00,VWS V14.00,2013-04-26 14:15:00,
2013-04-26 09:20:00,54.0,45.2,28.50,East,100,3.6,3.6,72,0.00,,---,0.00,VWS V14.00,2013-04-26 14:20:00,
2013-04-26 09:25:00,54.3,45.5,28.50,East,101,3.1,3.1,72,0.00,,---,0.00,VWS V14.00,2013-04-26 14:25:00,
2013-04-26 09:30:00,54.5,45.3,28.50,SE,137,4.0,8.7,71,0.00,,---,0.00,VWS V14.00,2013-04-26 14:30:00,
2013-04-26 09:35:00,54.9,45.7,28.53,SE,139,5.4,5.4,71,0.00,,---,0.00,VWS V14.00,2013-04-26 14:35:00,
2013-04-26 09:40:00,55.2,46.0,28.53,South,170,6.3,8.3,71,0.00,,---,0.00,VWS V14.00,2013-04-26 14:40:00,
2013-04-26 09:45:00,56.1,46.9,28.53,SSE,166,5.8,6.3,71,0.00,,---,0.00,VWS V14.00,2013-04-26 14:45:00,
2013-04-26 09:50:00,57.2,47.5,28.53,SE,128,5.4,6.7,70,0.00,,---,0.00,VWS V14.00,2013-04-26 14:50:00,
2013-04-26 09:55:00,58.5,48.7,28.53,ESE,122,10.5,10.5,70,0.00,,---,0.00,VWS V14.00,2013-04-26 14:55:00,
2013-04-26 10:00:00,59.2,48.2,28.53,SSE,152,7.6,8.7,67,0.00,,---,0.00,VWS V14.00,2013-04-26 15:00:00,
2013-04-26 10:06:00,60.1,48.7,28.53,SE,130,6.3,7.2,66,0.00,,---,0.00,VWS V14.00,2013-04-26 15:06:00,
2013-04-26 10:11:00,60.4,47.4,28.53,East,96,4.0,6.3,62,0.00,,---,0.00,VWS V14.00,2013-04-26 15:11:00,
2013-04-26 10:16:00,60.8,47.3,28.53,SSE,159,8.3,8.3,61,0.00,,---,0.00,VWS V14.00,2013-04-26 15:16:00,
2013-04-26 10:21:00,61.0,46.1,28.53,SE,134,10.1,10.1,58,0.00,,---,0.00,VWS V14.00,2013-04-26 15:21:00,
2013-04-26 10:26:00,61.3,46.5,28.53,SSE,162,4.9,5.8,58,0.00,,---,0.00,VWS V14.00,2013-04-26 15:26:00,
2013-04-26 10:31:00,61.9,47.0,28.53,SE,135,5.8,8.1,58,0.00,,---,0.00,VWS V14.00,2013-04-26 15:31:00,
2013-04-26 10:36:00,62.2,46.8,28.53,SSE,152,5.8,5.8,57,0.00,,---,0.00,VWS V14.00,2013-04-26 15:36:00,
2013-04-26 10:41:00,63.0,47.5,28.53,SE,137,4.9,4.9,57,0.00,,---,0.00,VWS V14.00,2013-04-26 15:41:00,
2013-04-26 10:46:00,63.7,47.2,28.53,SE,139,7.2,7.2,55,0.00,,---,0.00,VWS V14.00,2013-04-26 15:46:00,
2013-04-26 10:51:00,63.5,46.1,28.56,SE,138,8.7,10.5,53,0.00,,---,0.00,VWS V14.00,2013-04-26 15:51:00,
2013-04-26 10:57:00,63.0,45.6,28.56,SSE,149,7.6,11.0,53,0.00,,---,0.00,VWS V14.00,2013-04-26 15:57:00,
2013-04-26 11:02:00,62.6,46.2,28.56,SE,125,8.7,8.7,55,0.00,,---,0.00,VWS V14.00,2013-04-26 16:02:00,
2013-04-26 11:07:00,62.6,46.2,28.56,SSE,147,9.2,9.2,55,0.00,,---,0.00,VWS V14.00,2013-04-26 16:07:00,
2013-04-26 11:12:00,62.8,46.4,28.56,SE,145,10.1,10.1,55,0.00,,---,0.00,VWS V14.00,2013-04-26 16:12:00,
2013-04-26 11:17:00,62.6,45.2,28.56,SE,124,5.8,7.6,53,0.00,,---,0.00,VWS V14.00,2013-04-26 16:17:00,
2013-04-26 11:22:00,63.1,46.7,28.56,ESE,120,5.8,5.8,55,0.00,,---,0.00,VWS V14.00,2013-04-26 16:22:00,
2013-04-26 11:27:00,64.2,46.8,28.56,SSE,149,8.1,8.1,53,0.00,,---,0.00,VWS V14.00,2013-04-26 16:27:00,
2013-04-26 11:32:00,64.2,45.7,28.56,SE,143,4.9,8.3,51,0.00,,---,0.00,VWS V14.00,2013-04-26 16:32:00,
2013-04-26 11:37:00,64.0,46.1,28.56,SSE,156,9.6,10.1,52,0.00,,---,0.00,VWS V14.00,2013-04-26 16:37:00,
2013-04-26 11:42:00,63.7,45.2,28.56,South,169,8.7,8.7,51,0.00,,---,0.00,VWS V14.00,2013-04-26 16:42:00,
2013-04-26 11:48:00,64.2,46.8,28.56,SE,128,5.4,8.1,53,0.00,,---,0.00,VWS V14.00,2013-04-26 16:48:00,
2013-04-26 11:53:00,64.8,46.7,28.56,ESE,114,4.0,5.8,52,0.00,,---,0.00,VWS V14.00,2013-04-26 16:53:00,
2013-04-26 11:58:00,65.1,46.6,28.56,South,180,10.5,11.0,51,0.00,,---,0.00,VWS V14.00,2013-04-26 16:58:00,
2013-04-26 12:03:00,64.9,45.3,28.56,ESE,113,5.8,10.5,49,0.00,,---,0.00,VWS V14.00,2013-04-26 17:03:00,
2013-04-26 12:08:00,64.6,45.0,28.56,SE,144,8.3,8.7,49,0.00,,---,0.00,VWS V14.00,2013-04-26 17:08:00,
2013-04-26 12:13:00,63.9,44.3,28.56,SSE,148,4.0,6.3,49,0.00,,---,0.00,VWS V14.00,2013-04-26 17:13:00,
2013-04-26 12:18:00,63.5,43.5,28.56,SSE,157,8.1,10.1,48,0.00,,---,0.00,VWS V14.00,2013-04-26 17:18:00,
2013-04-26 12:23:00,62.6,43.7,28.56,SSE,158,5.8,10.1,50,0.00,,---,0.00,VWS V14.00,2013-04-26 17:23:00,
2013-04-26 12:28:00,62.2,44.9,28.56,ESE,123,8.7,8.7,53,0.00,,---,0.00,VWS V14.00,2013-04-26 17:28:00,
2013-04-26 12:33:00,62.4,45.6,28.56,SSE,149,8.3,8.3,54,0.00,,---,0.00,VWS V14.00,2013-04-26 17:33:00,
2013-04-26 12:39:00,62.2,44.4,28.56,SSE,157,6.3,7.6,52,0.00,,---,0.00,VWS V14.00,2013-04-26 17:39:00,
2013-04-26 12:44:00,62.2,45.4,28.56,SE,135,5.8,8.1,54,0.00,,---,0.00,VWS V14.00,2013-04-26 17:44:00,
2013-04-26 12:49:00,62.2,44.9,28.56,SE,131,5.8,7.6,53,0.00,,---,0.00,VWS V14.00,2013-04-26 17:49:00,
2013-04-26 12:54:00,62.4,45.6,28.56,SSE,155,7.2,8.1,54,0.00,,---,0.00,VWS V14.00,2013-04-26 17:54:00,
2013-04-26 12:59:00,63.0,46.1,28.56,SE,135,12.3,12.3,54,0.00,,---,0.00,VWS V14.00,2013-04-26 17:59:00,
2013-04-26 13:04:00,63.9,46.4,28.56,SSE,155,8.3,10.1,53,0.00,,---,0.00,VWS V14.00,2013-04-26 18:04:00,
2013-04-26 13:09:00,64.8,46.7,28.56,ESE,109,6.7,7.6,52,0.00,,---,0.00,VWS V14.00,2013-04-26 18:09:00,
2013-04-26 13:14:00,64.9,45.9,28.56,ESE,104,3.6,7.6,50,0.00,,---,0.00,VWS V14.00,2013-04-26 18:14:00,
2013-04-26 13:19:00,64.9,45.9,28.56,ENE,63,7.2,8.3,50,0.00,,---,0.00,VWS V14.00,2013-04-26 18:19:00,
2013-04-26 13:24:00,64.8,45.7,28.56,ENE,75,5.8,8.1,50,0.00,,---,0.00,VWS V14.00,2013-04-26 18:24:00,
2013-04-26 13:30:00,64.2,44.1,28.56,ESE,111,5.8,5.8,48,0.00,,---,0.00,VWS V14.00,2013-04-26 18:30:00,
2013-04-26 13:35:00,63.1,43.7,28.56,SE,141,5.4,6.3,49,0.00,,---,0.00,VWS V14.00,2013-04-26 18:35:00,
2013-04-26 13:40:00,61.7,42.9,28.56,East,101,5.4,5.8,50,0.00,,---,0.00,VWS V14.00,2013-04-26 18:40:00,
2013-04-26 13:45:00,60.4,42.8,28.56,SE,142,5.4,5.8,52,0.00,,---,0.00,VWS V14.00,2013-04-26 18:45:00,
2013-04-26 13:50:00,59.7,43.5,28.56,ESE,112,4.9,6.3,55,0.00,,---,0.00,VWS V14.00,2013-04-26 18:50:00,
2013-04-26 13:55:00,59.2,43.5,28.56,ESE,115,6.3,8.7,56,0.00,,---,0.00,VWS V14.00,2013-04-26 18:55:00,
2013-04-26 14:00:00,58.6,43.5,28.56,ESE,109,3.6,5.4,57,0.00,,---,0.00,VWS V14.00,2013-04-26 19:00:00,
2013-04-26 14:05:00,58.1,43.4,28.56,SE,140,6.7,6.7,58,0.00,,---,0.00,VWS V14.00,2013-04-26 19:05:00,
2013-04-26 14:10:00,57.9,43.7,28.56,SE,141,4.0,6.3,59,0.00,,---,0.00,VWS V14.00,2013-04-26 19:10:00,
2013-04-26 14:15:00,57.9,44.6,28.56,East,86,5.4,8.3,61,0.00,,---,0.00,VWS V14.00,2013-04-26 19:15:00,
2013-04-26 14:20:00,57.6,44.2,28.56,ESE,122,5.8,5.8,61,0.00,,---,0.00,VWS V14.00,2013-04-26 19:20:00,
2013-04-26 14:25:00,57.2,44.3,28.56,SSE,154,3.6,5.4,62,0.00,,---,0.00,VWS V14.00,2013-04-26 19:25:00,
2013-04-26 14:31:00,56.8,44.4,28.56,SSE,167,5.8,5.8,63,0.00,,---,0.00,VWS V14.00,2013-04-26 19:31:00,
2013-04-26 14:36:00,56.7,44.2,28.56,SE,135,5.8,8.3,63,0.00,,---,0.00,VWS V14.00,2013-04-26 19:36:00,
2013-04-26 14:41:00,56.3,44.3,28.56,SSE,151,4.9,4.9,64,0.00,,---,0.00,VWS V14.00,2013-04-26 19:41:00,
2013-04-26 14:46:00,56.1,44.1,28.56,SE,145,5.8,5.8,64,0.00,,---,0.00,VWS V14.00,2013-04-26 19:46:00,
2013-04-26 14:51:00,56.1,44.9,28.56,East,100,4.0,4.9,66,0.00,,---,0.00,VWS V14.00,2013-04-26 19:51:00,
2013-04-26 14:56:00,55.9,44.8,28.56,SE,135,8.1,8.1,66,0.00,,---,0.00,VWS V14.00,2013-04-26 19:56:00,
2013-04-26 15:01:00,55.9,45.2,28.56,SE,131,6.3,6.3,67,0.00,,---,0.00,VWS V14.00,2013-04-26 20:01:00,
2013-04-26 15:06:00,55.8,45.0,28.56,SE,134,3.6,5.4,67,0.00,,---,0.00,VWS V14.00,2013-04-26 20:06:00,
2013-04-26 15:11:00,55.8,45.4,28.56,SE,124,7.6,7.6,68,0.00,,---,0.00,VWS V14.00,2013-04-26 20:11:00,
2013-04-26 15:16:00,55.8,45.4,28.56,ESE,115,5.4,6.7,68,0.00,,---,0.00,VWS V14.00,2013-04-26 20:16:00,
2013-04-26 15:21:00,55.8,45.4,28.56,ESE,115,3.1,4.0,68,0.00,,---,0.00,VWS V14.00,2013-04-26 20:21:00,
2013-04-26 15:26:00,55.8,45.8,28.56,ESE,116,4.0,4.0,69,0.00,,---,0.00,VWS V14.00,2013-04-26 20:26:00,
2013-04-26 15:31:00,55.9,45.9,28.56,South,171,5.4,5.4,69,0.00,,---,0.00,VWS V14.00,2013-04-26 20:31:00,
2013-04-26 15:36:00,55.9,45.9,28.56,SSE,155,5.8,7.6,69,0.00,,---,0.00,VWS V14.00,2013-04-26 20:36:00,
2013-04-26 15:41:00,55.9,46.3,28.56,SSE,149,3.6,6.3,70,0.00,,---,0.00,VWS V14.00,2013-04-26 20:41:00,
2013-04-26 15:47:00,55.9,46.3,28.56,ESE,116,4.9,5.8,70,0.00,,---,0.00,VWS V14.00,2013-04-26 20:47:00,
2013-04-26 15:52:00,55.9,46.3,28.56,ESE,110,3.6,4.9,70,0.00,,---,0.00,VWS V14.00,2013-04-26 20:52:00,
2013-04-26 15:57:00,55.9,46.3,28.56,ESE,110,5.8,5.8,70,0.00,,---,0.00,VWS V14.00,2013-04-26 20:57:00,
2013-04-26 16:02:00,55.8,46.1,28.56,ESE,121,2.2,3.6,70,0.00,,---,0.00,VWS V14.00,2013-04-26 21:02:00,
2013-04-26 16:07:00,55.8,46.5,28.53,SSE,150,8.1,8.1,71,0.00,,---,0.00,VWS V14.00,2013-04-26 21:07:00,
2013-04-26 16:12:00,55.4,46.2,28.53,SE,131,3.6,5.4,71,0.00,,---,0.00,VWS V14.00,2013-04-26 21:12:00,
2013-04-26 16:17:00,55.2,46.0,28.53,East,85,2.7,5.4,71,0.00,,---,0.00,VWS V14.00,2013-04-26 21:17:00,
2013-04-26 16:22:00,54.9,45.7,28.56,SE,136,6.3,7.6,71,0.00,,---,0.00,VWS V14.00,2013-04-26 21:22:00,
2013-04-26 16:27:00,54.7,45.5,28.56,SSE,162,5.4,10.5,71,0.00,,---,0.00,VWS V14.00,2013-04-26 21:27:00,
2013-04-26 16:32:00,54.5,45.3,28.56,East,82,3.6,4.0,71,0.00,,---,0.00,VWS V14.00,2013-04-26 21:32:00,
2013-04-26 16:38:00,54.5,45.7,28.56,SSE,162,5.4,8.1,72,0.00,,---,0.00,VWS V14.00,2013-04-26 21:38:00,
2013-04-26 16:43:00,54.1,45.3,28.56,South,179,3.1,3.6,72,0.00,,---,0.00,VWS V14.00,2013-04-26 21:43:00,
2013-04-26 16:48:00,54.0,45.2,28.56,SSE,149,4.0,4.0,72,0.00,,---,0.00,VWS V14.00,2013-04-26 21:48:00,
2013-04-26 16:53:00,54.0,45.2,28.56,ESE,118,8.1,8.1,72,0.00,,---,0.00,VWS V14.00,2013-04-26 21:53:00,
2013-04-26 16:58:00,54.0,45.2,28.56,SSE,155,4.9,5.8,72,0.00,,---,0.00,VWS V14.00,2013-04-26 21:58:00,
2013-04-26 17:03:00,53.8,45.3,28.56,SE,143,3.6,3.6,73,0.00,,---,0.00,VWS V14.00,2013-04-26 22:03:00,
2013-04-26 17:08:00,53.8,45.3,28.56,SSE,161,5.8,5.8,73,0.00,,---,0.00,VWS V14.00,2013-04-26 22:08:00,
2013-04-26 17:13:00,53.6,45.2,28.56,SE,136,5.4,5.8,73,0.00,,---,0.00,VWS V14.00,2013-04-26 22:13:00,
2013-04-26 17:18:00,53.4,45.0,28.56,SE,142,3.6,5.8,73,0.00,,---,0.00,VWS V14.00,2013-04-26 22:18:00,
2013-04-26 17:23:00,53.4,45.3,28.56,SE,125,5.4,8.1,74,0.00,,---,0.00,VWS V14.00,2013-04-26 22:23:00,
2013-04-26 17:28:00,53.4,45.3,28.56,SSE,152,4.0,4.0,74,0.00,,---,0.00,VWS V14.00,2013-04-26 22:28:00,
2013-04-26 17:33:00,53.4,45.3,28.56,SE,129,5.8,5.8,74,0.00,,---,0.00,VWS V14.00,2013-04-26 22:33:00,
2013-04-26 17:39:00,53.1,45.0,28.56,SE,143,5.4,5.4,74,0.00,,---,0.00,VWS V14.00,2013-04-26 22:39:00,
2013-04-26 17:44:00,52.9,45.2,28.56,South,179,3.6,4.0,75,0.00,,---,0.00,VWS V14.00,2013-04-26 22:44:00,
2013-04-26 17:49:00,52.7,45.0,28.56,SSE,154,4.0,5.4,75,0.00,,---,0.00,VWS V14.00,2013-04-26 22:49:00,
2013-04-26 17:54:00,52.5,45.2,28.56,SE,137,3.6,5.4,76,0.04,,---,0.04,VWS V14.00,2013-04-26 22:54:00,
2013-04-26 17:59:00,52.3,45.3,28.56,SE,137,3.6,5.4,77,0.04,,---,0.04,VWS V14.00,2013-04-26 22:59:00,
2013-04-26 18:04:00,52.2,45.2,28.56,ESE,106,2.7,2.7,77,0.04,,---,0.04,VWS V14.00,2013-04-26 23:04:00,
2013-04-26 18:09:00,52.2,45.5,28.56,SE,127,3.1,3.1,78,0.04,,---,0.04,VWS V14.00,2013-04-26 23:09:00,
2013-04-26 18:14:00,51.8,45.5,28.56,ESE,103,2.2,2.7,79,0.04,,---,0.04,VWS V14.00,2013-04-26 23:14:00,
2013-04-26 18:19:00,51.8,45.5,28.56,ESE,113,4.0,4.0,79,0.04,,---,0.04,VWS V14.00,2013-04-26 23:19:00,
2013-04-26 18:24:00,51.6,45.7,28.56,ESE,113,4.0,4.0,80,0.04,,---,0.04,VWS V14.00,2013-04-26 23:24:00,
2013-04-26 18:29:00,51.6,46.0,28.56,ESE,103,2.7,3.6,81,0.04,,---,0.04,VWS V14.00,2013-04-26 23:29:00,
2013-04-26 18:34:00,51.6,46.3,28.56,ESE,102,3.1,3.6,82,0.04,,---,0.04,VWS V14.00,2013-04-26 23:34:00,
2013-04-26 18:40:00,51.4,46.1,28.56,ENE,60,3.1,5.4,82,0.04,,---,0.04,VWS V14.00,2013-04-26 23:40:00,
2013-04-26 18:45:00,51.4,46.5,28.56,SE,130,3.1,3.1,83,0.04,,---,0.04,VWS V14.00,2013-04-26 23:45:00,
2013-04-26 18:50:00,51.4,46.5,28.56,East,90,3.1,3.1,83,0.04,,---,0.04,VWS V14.00,2013-04-26 23:50:00,
2013-04-26 19:05:00,51.4,46.8,28.56,East,89,2.7,3.1,84,0.00,,---,0.04,VWS V14.00,2013-04-27 00:05:00,
2013-04-26 19:10:00,51.4,47.1,28.56,East,89,0.0,0.0,85,0.00,,---,0.04,VWS V14.00,2013-04-27 00:10:00,
2013-04-26 19:15:00,51.4,47.1,28.56,ENE,75,0.0,0.0,85,0.00,,---,0.04,VWS V14.00,2013-04-27 00:15:00,
2013-04-26 19:21:00,51.6,47.3,28.56,NNE,21,0.0,3.6,85,0.00,,---,0.04,VWS V14.00,2013-04-27 00:21:00,
2013-04-26 19:26:00,51.6,47.3,28.56,NNE,21,0.0,0.0,85,0.00,,---,0.04,VWS V14.00,2013-04-27 00:26:00,
2013-04-26 19:31:00,51.6,47.3,28.56,NNE,21,0.0,0.0,85,0.00,,---,0.04,VWS V14.00,2013-04-27 00:31:00,
2013-04-26 19:36:00,51.6,47.6,28.56,NNE,21,0.0,0.0,86,0.00,,---,0.04,VWS V14.00,2013-04-27 00:36:00,
2013-04-26 19:41:00,51.6,47.6,28.56,NNE,21,0.0,0.0,86,0.00,,---,0.04,VWS V14.00,2013-04-27 00:41:00,
2013-04-26 19:46:00,51.6,47.6,28.56,NNE,21,0.0,0.0,86,0.00,,---,0.04,VWS V14.00,2013-04-27 00:46:00,
2013-04-26 19:51:00,51.6,47.6,28.59,NNE,21,0.0,0.0,86,0.00,,---,0.04,VWS V14.00,2013-04-27 00:51:00,
2013-04-26 19:56:00,51.6,47.6,28.59,NNE,21,0.0,0.0,86,0.00,,---,0.04,VWS V14.00,2013-04-27 00:56:00,
2013-04-26 20:01:00,51.6,47.9,28.59,NNE,21,0.0,2.7,87,0.00,,---,0.04,VWS V14.00,2013-04-27 01:01:00,
2013-04-26 20:06:00,51.6,47.9,28.59,NNE,21,0.0,0.0,87,0.00,,---,0.04,VWS V14.00,2013-04-27 01:06:00,
2013-04-26 20:12:00,51.6,47.9,28.59,NNE,21,0.0,0.0,87,0.00,,---,0.04,VWS V14.00,2013-04-27 01:12:00,
2013-04-26 20:17:00,51.6,47.9,28.59,NNE,20,0.0,3.6,87,0.00,,---,0.04,VWS V14.00,2013-04-27 01:17:00,
2013-04-26 20:22:00,51.6,47.9,28.59,NNE,20,0.0,0.0,87,0.00,,---,0.04,VWS V14.00,2013-04-27 01:22:00,
2013-04-26 20:27:00,51.4,48.0,28.59,NNE,20,2.2,2.2,88,0.00,,---,0.04,VWS V14.00,2013-04-27 01:27:00,
2013-04-26 20:32:00,51.4,48.0,28.59,NNE,20,0.0,0.0,88,0.00,,---,0.04,VWS V14.00,2013-04-27 01:32:00,
2013-04-26 20:37:00,51.4,48.0,28.59,NNE,19,2.7,4.9,88,0.00,,---,0.04,VWS V14.00,2013-04-27 01:37:00,
2013-04-26 20:42:00,51.4,48.0,28.59,NNE,19,3.1,3.1,88,0.00,,---,0.04,VWS V14.00,2013-04-27 01:42:00,
2013-04-26 20:47:00,51.3,48.1,28.59,NNE,19,0.0,0.0,89,0.00,,---,0.04,VWS V14.00,2013-04-27 01:47:00,
2013-04-26 20:52:00,51.3,48.1,28.59,NNE,19,2.7,4.0,89,0.00,,---,0.04,VWS V14.00,2013-04-27 01:52:00,
2013-04-26 20:57:00,51.3,48.1,28.59,North,9,0.0,3.6,89,0.00,,---,0.04,VWS V14.00,2013-04-27 01:57:00,
2013-04-26 21:03:00,51.3,48.1,28.59,North,9,0.0,0.0,89,0.00,,---,0.04,VWS V14.00,2013-04-27 02:03:00,
2013-04-26 21:08:00,51.3,48.1,28.59,North,9,2.2,4.0,89,0.00,,---,0.04,VWS V14.00,2013-04-27 02:08:00,
2013-04-26 21:13:00,51.3,48.4,28.59,North,6,3.6,3.6,90,0.00,,---,0.04,VWS V14.00,2013-04-27 02:13:00,
2013-04-26 21:18:00,51.3,48.4,28.59,North,6,2.7,2.7,90,0.00,,---,0.04,VWS V14.00,2013-04-27 02:18:00,
2013-04-26 21:23:00,51.3,48.4,28.61,North,7,0.0,0.0,90,0.00,,---,0.04,VWS V14.00,2013-04-27 02:23:00,
2013-04-26 21:28:00,51.1,48.2,28.61,North,7,0.0,0.0,90,0.00,,---,0.04,VWS V14.00,2013-04-27 02:28:00,
2013-04-26 21:33:00,51.1,48.2,28.61,North,7,3.1,3.1,90,0.00,,---,0.04,VWS V14.00,2013-04-27 02:33:00,
2013-04-26 21:38:00,51.1,48.5,28.61,North,7,0.0,0.0,91,0.00,,---,0.04,VWS V14.00,2013-04-27 02:38:00,
2013-04-26 21:43:00,51.1,48.5,28.61,North,7,2.2,3.6,91,0.00,,---,0.04,VWS V14.00,2013-04-27 02:43:00,
2013-04-26 21:48:00,51.1,48.5,28.61,North,7,2.7,3.6,91,0.00,,---,0.04,VWS V14.00,2013-04-27 02:48:00,
2013-04-26 21:54:00,51.1,48.5,28.61,North,7,2.2,3.6,91,0.00,,---,0.04,VWS V14.00,2013-04-27 02:54:00,
2013-04-26 21:59:00,51.1,48.5,28.61,North,7,2.7,3.6,91,0.00,,---,0.04,VWS V14.00,2013-04-27 02:59:00,
2013-04-26 22:04:00,51.1,48.5,28.61,North,7,2.7,4.0,91,0.00,,---,0.04,VWS V14.00,2013-04-27 03:04:00,
2013-04-26 22:09:00,51.1,48.8,28.61,North,7,2.7,3.1,92,0.00,,---,0.04,VWS V14.00,2013-04-27 03:09:00,
2013-04-26 22:14:00,51.1,48.8,28.61,North,7,2.2,3.6,92,0.00,,---,0.04,VWS V14.00,2013-04-27 03:14:00,
2013-04-26 22:19:00,51.1,48.8,28.61,North,7,3.6,3.6,92,0.00,,---,0.04,VWS V14.00,2013-04-27 03:19:00,
2013-04-26 22:24:00,51.1,48.8,28.61,NNE,12,2.7,3.6,92,0.00,,---,0.04,VWS V14.00,2013-04-27 03:24:00,
2013-04-26 22:29:00,51.1,48.8,28.61,NNE,13,2.7,2.7,92,0.00,,---,0.04,VWS V14.00,2013-04-27 03:29:00,
2013-04-26 22:34:00,51.1,49.1,28.61,North,2,2.7,3.6,93,0.00,,---,0.04,VWS V14.00,2013-04-27 03:34:00,
2013-04-26 22:39:00,51.1,49.1,28.61,North,0,2.7,4.0,93,0.00,,---,0.04,VWS V14.00,2013-04-27 03:39:00,
2013-04-26 22:44:00,50.9,49.0,28.61,North,8,3.1,5.4,93,0.00,,---,0.04,VWS V14.00,2013-04-27 03:44:00,
2013-04-26 22:49:00,50.9,49.0,28.61,North,9,2.7,3.1,93,0.00,,---,0.04,VWS V14.00,2013-04-27 03:49:00,
2013-04-26 22:54:00,50.9,49.0,28.61,North,3,3.1,3.6,93,0.00,,---,0.04,VWS V14.00,2013-04-27 03:54:00,
2013-04-26 22:59:00,50.9,49.0,28.61,North,7,3.1,3.1,93,0.00,,---,0.04,VWS V14.00,2013-04-27 03:59:00,
2013-04-26 23:01:00,50.9,49.0,28.61,North,7,3.1,5.4,93,0.00,,---,0.04,VWS V14.00,2013-04-27 04:01:00,
2013-04-26 23:02:00,50.9,49.0,28.61,NNE,16,6.3,6.3,93,0.00,,---,0.04,VWS V14.00,2013-04-27 04:02:00,
2013-04-26 23:07:00,50.9,49.0,28.61,North,357,4.9,6.3,93,0.00,,---,0.04,VWS V14.00,2013-04-27 04:07:00,
2013-04-26 23:12:00,50.9,49.0,28.61,NNE,14,0.0,0.0,93,0.00,,---,0.04,VWS V14.00,2013-04-27 04:12:00,
2013-04-26 23:17:00,50.9,49.0,28.61,North,10,0.0,0.0,93,0.00,,---,0.04,VWS V14.00,2013-04-27 04:17:00,
2013-04-26 23:22:00,50.9,49.2,28.61,North,10,2.7,2.7,94,0.00,,---,0.04,VWS V14.00,2013-04-27 04:22:00,
2013-04-26 23:27:00,50.9,49.2,28.61,North,10,2.2,2.7,94,0.00,,---,0.04,VWS V14.00,2013-04-27 04:27:00,
2013-04-26 23:33:00,50.9,49.2,28.61,North,9,0.0,0.0,94,0.00,,---,0.04,VWS V14.00,2013-04-27 04:33:00,
2013-04-26 23:38:00,50.9,49.2,28.61,North,357,3.1,3.1,94,0.00,,---,0.04,VWS V14.00,2013-04-27 04:38:00,
2013-04-26 23:43:00,50.9,49.2,28.61,North,357,0.0,2.2,94,0.00,,---,0.04,VWS V14.00,2013-04-27 04:43:00,
2013-04-26 23:48:00,50.9,49.2,28.61,North,357,2.7,3.6,94,0.00,,---,0.04,VWS V14.00,2013-04-27 04:48:00,
2013-04-26 23:53:00,50.9,49.2,28.61,North,9,4.5,4.5,94,0.00,,---,0.04,VWS V14.00,2013-04-27 04:53:00,
2013-04-26 23:58:00,50.9,49.2,28.61,North,8,3.6,3.6,94,0.00,,---,0.04,VWS V14.00,2013-04-27 04:58:00,